"Period start","avg(HW err(1)/warn(2) (#))","avg(Visibility (m))","avg(Weather code (#))","avg(Precip intensity (mm/h))","min(HW err(1)/warn(2) (#))","max(HW err(1)/warn(2) (#))","std(HW err(1)/warn(2) (#))","med(HW err(1)/warn(2) (#))","min(Visibility (m))","max(Visibility (m))","std(Visibility (m))","med(Visibility (m))","min(Weather code (#))","max(Weather code (#))","std(Weather code (#))","med(Weather code (#))","min(Precip intensity (mm/h))","max(Precip intensity (mm/h))","std(Precip intensity (mm/h))","med(Precip intensity (mm/h))"
2014-09-18 00:00:00,2,17496,12,0.00,2,2,0,2,14289,20501,1638,17430,0,41,19,0,0.00,0.00,0.00,0.00
2014-09-18 00:10:00,2,18437,0,0.00,2,2,0,2,15081,21391,1745,18870,0,0,0,0,0.00,0.00,0.00,0.00
2014-09-18 00:20:00,2,13239,0,0.00,2,2,0,2,12040,15770,1196,12632,0,0,0,0,0.00,0.00,0.00,0.00
2014-09-18 00:30:00,2,16516,0,0.00,2,2,0,2,12156,19822,2406,17290,0,0,0,0,0.00,0.00,0.00,0.00
2014-09-18 00:40:00,2,24242,0,0.00,2,2,0,2,17685,30450,3873,24712,0,0,0,0,0.00,0.00,0.00,0.00
2014-09-18 00:50:00,2,27993,0,0.00,2,2,0,2,22748,30444,2329,28140,0,0,0,0,0.00,0.00,0.00,0.00
2014-09-18 01:00:00,2,32264,0,0.00,2,2,0,2,23082,44760,6684,30476,0,0,0,0,0.00,0.00,0.00,0.00
2014-09-18 01:10:00,2,30693,0,0.00,2,2,0,2,26766,35930,3098,29952,0,0,0,0,0.00,0.00,0.00,0.00
2014-09-18 01:20:00,2,31057,0,0.00,2,2,0,2,27793,39155,3671,29616,0,0,0,0,0.00,0.00,0.00,0.00
2014-09-18 01:30:00,2,30792,0,0.00,2,2,0,2,26548,34680,2677,31602,0,0,0,0,0.00,0.00,0.00,0.00
2014-09-18 01:40:00,2,28311,0,0.00,2,2,0,2,24585,36371,3318,27313,0,0,0,0,0.00,0.00,0.00,0.00
2014-09-18 01:50:00,2,30786,0,0.00,2,2,0,2,25663,39401,4216,29392,0,0,0,0,0.00,0.00,0.00,0.00
2014-09-18 02:00:00,2,30640,4,0.00,2,2,0,2,25471,38970,4254,29496,0,40,12,0,0.00,0.00,0.00,0.00
2014-09-18 02:10:00,2,29603,45,0.04,2,2,0,2,26893,32132,1730,30093,41,51,5,41,0.00,0.10,0.04,0.03
2014-09-18 02:20:00,2,29574,50,0.03,2,2,0,2,24561,34723,3223,29716,41,61,9,46,0.00,0.15,0.05,0.00
2014-09-18 02:30:00,2,30472,41,0.00,2,2,0,2,27195,33456,1885,30578,41,41,0,41,0.00,0.00,0.00,0.00
2014-09-18 02:40:00,2,41521,8,0.00,2,2,0,2,34239,49812,4859,41642,0,41,16,0,0.00,0.00,0.00,0.00
2014-09-18 02:50:00,2,43384,0,0.00,2,2,0,2,39538,47515,2379,43554,0,0,0,0,0.00,0.00,0.00,0.00
2014-09-18 03:00:00,2,38424,0,0.00,2,2,0,2,26920,44983,5257,38966,0,0,0,0,0.00,0.00,0.00,0.00
2014-09-18 03:10:00,2,37976,0,0.00,2,2,0,2,34363,41571,2444,38716,0,0,0,0,0.00,0.00,0.00,0.00
2014-09-18 03:20:00,2,39379,0,0.00,2,2,0,2,35712,45118,2773,39246,0,0,0,0,0.00,0.00,0.00,0.00
2014-09-18 03:30:00,2,39071,0,0.00,2,2,0,2,34547,45181,3441,39118,0,0,0,0,0.00,0.00,0.00,0.00
2014-09-18 03:40:00,2,37434,0,0.00,2,2,0,2,33147,41193,2250,37334,0,0,0,0,0.00,0.00,0.00,0.00
2014-09-18 03:50:00,2,41956,0,0.00,2,2,0,2,36846,48585,3610,42234,0,0,0,0,0.00,0.00,0.00,0.00
2014-09-18 04:00:00,2,38613,0,0.00,2,2,0,2,32597,46952,4615,37434,0,0,0,0,0.00,0.00,0.00,0.00
2014-09-18 04:10:00,2,47499,0,0.00,2,2,0,2,43247,50000,2335,47986,0,0,0,0,0.00,0.00,0.00,0.00
2014-09-18 04:20:00,2,47951,0,0.00,2,2,0,2,44380,50000,1662,48386,0,0,0,0,0.00,0.00,0.00,0.00
2014-09-18 04:30:00,2,48500,0,0.00,2,2,0,2,43475,50000,1978,49248,0,0,0,0,0.00,0.00,0.00,0.00
2014-09-18 04:40:00,2,45831,0,0.00,2,2,0,2,35503,50000,4388,46608,0,0,0,0,0.00,0.00,0.00,0.00
2014-09-18 04:50:00,2,48066,0,0.00,2,2,0,2,44436,50000,2417,50000,0,0,0,0,0.00,0.00,0.00,0.00
2014-09-18 05:00:00,2,49952,0,0.00,2,2,0,2,49518,50000,145,50000,0,0,0,0,0.00,0.00,0.00,0.00
2014-09-18 05:10:00,2,49422,0,0.00,2,2,0,2,47660,50000,909,50000,0,0,0,0,0.00,0.00,0.00,0.00
2014-09-18 05:20:00,2,36768,0,0.00,2,2,0,2,24721,50000,7838,35848,0,0,0,0,0.00,0.00,0.00,0.00
2014-09-18 05:30:00,2,29180,0,0.00,2,2,0,2,24826,32494,2222,29108,0,0,0,0,0.00,0.00,0.00,0.00
2014-09-18 05:40:00,2,39124,0,0.00,2,2,0,2,28597,47838,6118,38996,0,0,0,0,0.00,0.00,0.00,0.00
2014-09-18 05:50:00,2,28760,0,0.00,2,2,0,2,18614,35408,6061,32003,0,0,0,0,0.00,0.00,0.00,0.00
2014-09-18 06:00:00,2,30976,0,0.00,2,2,0,2,16562,46219,9887,29425,0,0,0,0,0.00,0.00,0.00,0.00
2014-09-18 06:10:00,2,39460,0,0.00,2,2,0,2,30363,48134,5738,39089,0,0,0,0,0.00,0.00,0.00,0.00
2014-09-18 06:20:00,2,39165,0,0.00,2,2,0,2,21466,50000,9308,39943,0,0,0,0,0.00,0.00,0.00,0.00
2014-09-18 06:30:00,2,44895,0,0.00,2,2,0,2,35373,50000,4425,44880,0,0,0,0,0.00,0.00,0.00,0.00
2014-09-18 06:40:00,2,38412,0,0.00,2,2,0,2,30274,48614,5436,39300,0,0,0,0,0.00,0.00,0.00,0.00
2014-09-18 06:50:00,2,40853,0,0.00,2,2,0,2,30473,49141,5751,41910,0,0,0,0,0.00,0.00,0.00,0.00
2014-09-18 07:00:00,2,35576,0,0.00,2,2,0,2,26295,42612,5207,36120,0,0,0,0,0.00,0.00,0.00,0.00
2014-09-18 07:10:00,2,39614,0,0.00,2,2,0,2,28720,46476,5594,40982,0,0,0,0,0.00,0.00,0.00,0.00
2014-09-18 07:20:00,2,46035,0,0.00,2,2,0,2,40341,50000,3064,46564,0,0,0,0,0.00,0.00,0.00,0.00
2014-09-18 07:30:00,2,41051,0,0.00,2,2,0,2,34210,47020,3896,40232,0,0,0,0,0.00,0.00,0.00,0.00
2014-09-18 07:40:00,2,40591,0,0.00,2,2,0,2,30419,46805,4958,42285,0,0,0,0,0.00,0.00,0.00,0.00
2014-09-18 07:50:00,2,39216,0,0.00,2,2,0,2,27407,49308,6653,37941,0,0,0,0,0.00,0.00,0.00,0.00
2014-09-18 08:00:00,2,34305,0,0.00,2,2,0,2,23736,41224,6342,36644,0,0,0,0,0.00,0.00,0.00,0.00
2014-09-18 08:10:00,2,48413,0,0.00,2,2,0,2,41744,50000,2598,50000,0,0,0,0,0.00,0.00,0.00,0.00
2014-09-18 08:20:00,2,46483,0,0.00,2,2,0,2,38807,49975,3446,47941,0,0,0,0,0.00,0.00,0.00,0.00
2014-09-18 08:30:00,2,41450,0,0.00,2,2,0,2,36205,48079,4117,41152,0,0,0,0,0.00,0.00,0.00,0.00
2014-09-18 08:40:00,2,40686,0,0.00,2,2,0,2,33540,50000,5239,39736,0,0,0,0,0.00,0.00,0.00,0.00
2014-09-18 08:50:00,2,39961,0,0.00,2,2,0,2,34415,44668,3050,39658,0,0,0,0,0.00,0.00,0.00,0.00
2014-09-18 09:00:00,2,43538,0,0.00,2,2,0,2,36555,49091,3641,44055,0,0,0,0,0.00,0.00,0.00,0.00
2014-09-18 09:10:00,2,47348,0,0.00,2,2,0,2,45035,50000,1693,46654,0,0,0,0,0.00,0.00,0.00,0.00
2014-09-18 09:20:00,2,42596,0,0.00,2,2,0,2,36196,47876,3388,42928,0,0,0,0,0.00,0.00,0.00,0.00
2014-09-18 09:30:00,2,45880,0,0.00,2,2,0,2,39429,50000,3853,45953,0,0,0,0,0.00,0.00,0.00,0.00
2014-09-18 09:40:00,2,44157,0,0.00,2,2,0,2,40674,47022,2064,44186,0,0,0,0,0.00,0.00,0.00,0.00
2014-09-18 09:50:00,2,48176,0,0.00,2,2,0,2,42755,50000,2383,48928,0,0,0,0,0.00,0.00,0.00,0.00
2014-09-18 10:00:00,2,46309,0,0.00,2,2,0,2,42588,50000,2689,45378,0,0,0,0,0.00,0.00,0.00,0.00
2014-09-18 10:10:00,2,46252,0,0.00,2,2,0,2,42268,50000,2862,47179,0,0,0,0,0.00,0.00,0.00,0.00
2014-09-18 10:20:00,2,37435,0,0.00,2,2,0,2,32344,47092,4034,36961,0,0,0,0,0.00,0.00,0.00,0.00
2014-09-18 10:30:00,2,38171,4,0.00,2,2,0,2,32486,46697,3958,38056,0,40,12,0,0.00,0.00,0.00,0.00
2014-09-18 10:40:00,2,31748,41,0.01,2,2,0,2,24661,40477,5171,30275,41,41,0,41,0.00,0.05,0.02,0.00
2014-09-18 10:50:00,2,32488,45,0.00,2,2,0,2,25829,38341,4420,33531,41,61,8,41,0.00,0.00,0.00,0.00
2014-09-18 11:00:00,2,40140,22,0.00,2,2,0,2,31835,48787,4957,40422,0,61,28,0,0.00,0.00,0.00,0.00
2014-09-18 11:10:00,2,42743,0,0.00,2,2,0,2,37977,48738,3900,42596,0,0,0,0,0.00,0.00,0.00,0.00
2014-09-18 11:20:00,2,34552,0,0.00,2,2,0,2,30100,38383,2792,35290,0,0,0,0,0.00,0.00,0.00,0.00
2014-09-18 11:30:00,2,40096,0,0.00,2,2,0,2,36031,44864,2626,39373,0,0,0,0,0.00,0.00,0.00,0.00
2014-09-18 11:40:00,2,45251,0,0.00,2,2,0,2,41534,49808,2504,45855,0,0,0,0,0.00,0.00,0.00,0.00
2014-09-18 11:50:00,2,44274,0,0.00,2,2,0,2,38890,50000,3184,44008,0,0,0,0,0.00,0.00,0.00,0.00
2014-09-18 12:00:00,2,46162,0,0.00,2,2,0,2,40576,50000,3201,46358,0,0,0,0,0.00,0.00,0.00,0.00
2014-09-18 12:10:00,2,47643,0,0.00,2,2,0,2,41073,50000,2882,48678,0,0,0,0,0.00,0.00,0.00,0.00
2014-09-18 12:20:00,2,49316,0,0.00,2,2,0,2,47862,50000,900,50000,0,0,0,0,0.00,0.00,0.00,0.00
2014-09-18 12:30:00,2,44987,0,0.00,2,2,0,2,39102,49902,3003,45496,0,0,0,0,0.00,0.00,0.00,0.00
2014-09-18 12:40:00,2,46768,0,0.00,2,2,0,2,40641,50000,3369,47974,0,0,0,0,0.00,0.00,0.00,0.00
2014-09-18 12:50:00,2,40663,0,0.00,2,2,0,2,35943,50000,4570,39252,0,0,0,0,0.00,0.00,0.00,0.00
2014-09-18 13:00:00,2,40607,0,0.00,2,2,0,2,34847,47215,3708,41484,0,0,0,0,0.00,0.00,0.00,0.00
2014-09-18 13:10:00,2,31902,0,0.00,2,2,0,2,24977,38009,3947,32586,0,0,0,0,0.00,0.00,0.00,0.00
2014-09-18 13:20:00,2,20501,0,0.00,2,2,0,2,11014,35287,8031,19026,0,0,0,0,0.00,0.00,0.00,0.00
2014-09-18 13:30:00,2,10743,45,0.10,2,2,0,2,8005,13830,1810,10730,41,61,8,41,0.00,0.35,0.10,0.08
2014-09-18 13:40:00,2,15638,54,0.11,2,2,0,2,10699,22917,3425,16323,41,61,6,51,0.00,0.25,0.08,0.12
2014-09-18 13:50:00,2,17175,45,0.04,2,2,0,2,13635,21144,2342,17322,41,61,8,41,0.00,0.20,0.07,0.00
2014-09-18 14:00:00,2,23751,49,0.02,2,2,0,2,14882,31407,5145,24960,41,61,7,51,0.00,0.10,0.03,0.00
2014-09-18 14:10:00,2,22263,51,0.03,2,2,0,2,14955,29998,5212,20816,41,61,10,51,0.00,0.10,0.05,0.00
2014-09-18 14:20:00,2,43922,8,0.00,2,2,0,2,38333,50000,3859,45058,0,41,16,0,0.00,0.00,0.00,0.00
2014-09-18 14:30:00,2,48640,0,0.00,2,2,0,2,44914,50000,1861,49676,0,0,0,0,0.00,0.00,0.00,0.00
2014-09-18 14:40:00,2,49722,0,0.00,2,2,0,2,48989,50000,396,50000,0,0,0,0,0.00,0.00,0.00,0.00
2014-09-18 14:50:00,2,48272,0,0.00,2,2,0,2,42382,50000,2256,48890,0,0,0,0,0.00,0.00,0.00,0.00
2014-09-18 15:00:00,2,34864,0,0.00,2,2,0,2,24983,50000,9279,30602,0,0,0,0,0.00,0.00,0.00,0.00
2014-09-18 15:10:00,2,47131,0,0.00,2,2,0,2,42793,50000,2592,48112,0,0,0,0,0.00,0.00,0.00,0.00
2014-09-18 15:20:00,2,49392,0,0.00,2,2,0,2,46691,50000,1221,50000,0,0,0,0,0.00,0.00,0.00,0.00
2014-09-18 15:30:00,2,49793,0,0.00,2,2,0,2,47932,50000,620,50000,0,0,0,0,0.00,0.00,0.00,0.00
2014-09-18 15:40:00,2,49855,0,0.00,2,2,0,2,48554,50000,434,50000,0,0,0,0,0.00,0.00,0.00,0.00
2014-09-18 15:50:00,2,50000,0,0.00,2,2,0,2,50000,50000,0,50000,0,0,0,0,0.00,0.00,0.00,0.00
2014-09-18 16:00:00,2,50000,0,0.00,2,2,0,2,50000,50000,0,50000,0,0,0,0,0.00,0.00,0.00,0.00
2014-09-18 16:10:00,2,50000,0,0.00,2,2,0,2,50000,50000,0,50000,0,0,0,0,0.00,0.00,0.00,0.00
2014-09-18 16:20:00,2,50000,0,0.00,2,2,0,2,50000,50000,0,50000,0,0,0,0,0.00,0.00,0.00,0.00
2014-09-18 16:30:00,2,49737,0,0.00,2,2,0,2,48046,50000,598,50000,0,0,0,0,0.00,0.00,0.00,0.00
2014-09-18 16:40:00,2,49512,0,0.00,2,2,0,2,47590,50000,860,50000,0,0,0,0,0.00,0.00,0.00,0.00
2014-09-18 16:50:00,2,27457,0,0.00,2,2,0,2,13522,45714,10779,24222,0,0,0,0,0.00,0.00,0.00,0.00
2014-09-18 17:00:00,2,29803,0,0.00,2,2,0,2,21546,41733,6055,28248,0,0,0,0,0.00,0.00,0.00,0.00
2014-09-18 17:10:00,2,22977,0,0.00,2,2,0,2,15133,41819,8193,20200,0,0,0,0,0.00,0.00,0.00,0.00
2014-09-18 17:20:00,2,16830,0,0.00,2,2,0,2,15518,19355,1298,16124,0,0,0,0,0.00,0.00,0.00,0.00
2014-09-18 17:30:00,2,20904,20,0.03,2,2,0,2,15481,25025,2999,21594,0,41,20,20,0.00,0.10,0.03,0.03
2014-09-18 17:40:00,2,19769,45,0.12,2,2,0,2,14444,25069,3968,20530,41,51,5,41,0.05,0.35,0.10,0.10
2014-09-18 17:50:00,2,26369,41,0.08,2,2,0,2,17454,42267,7376,23610,41,41,0,41,0.05,0.20,0.05,0.05
2014-09-18 18:00:00,2,42099,41,0.01,2,2,0,2,30969,50000,4979,42738,41,41,0,41,0.00,0.05,0.02,0.00
2014-09-18 18:10:00,2,37255,41,0.00,2,2,0,2,28810,49360,6436,36088,41,41,0,41,0.00,0.00,0.00,0.00
2014-09-18 18:20:00,2,32798,16,0.00,2,2,0,2,23296,49797,9225,30324,0,61,25,0,0.00,0.00,0.00,0.00
2014-09-18 18:30:00,2,39557,0,0.00,2,2,0,2,30985,50000,5473,40835,0,0,0,0,0.00,0.00,0.00,0.00
2014-09-18 18:40:00,2,28248,14,0.01,2,2,0,2,18086,38554,7389,27892,0,61,22,0,0.00,0.05,0.02,0.00
2014-09-18 18:50:00,2,48478,6,0.00,2,2,0,2,38703,50000,3358,50000,0,61,18,0,0.00,0.00,0.00,0.00
2014-09-18 19:00:00,2,30266,16,0.01,2,2,0,2,17664,44630,9792,32560,0,41,20,0,0.00,0.05,0.02,0.00
2014-09-18 19:10:00,2,20843,62,0.21,2,2,0,2,14002,31699,5371,18324,41,71,14,71,0.00,1.35,0.39,0.08
2014-09-18 19:20:00,2,15779,71,0.23,2,2,0,2,10610,26426,4595,14629,71,74,1,71,0.00,0.65,0.21,0.17
2014-09-18 19:30:00,2,10566,71,0.45,2,2,0,2,9216,11815,746,10703,71,74,1,71,0.10,0.90,0.27,0.42
2014-09-18 19:40:00,2,20668,71,0.07,2,2,0,2,11908,29642,5653,19902,71,71,0,71,0.00,0.20,0.06,0.05
2014-09-18 19:50:00,2,17848,71,0.15,2,2,0,2,11106,24425,3901,18098,71,71,0,71,0.00,0.60,0.17,0.08
2014-09-18 20:00:00,2,13913,71,0.09,2,2,0,2,11466,19467,2418,12772,71,71,0,71,0.00,0.20,0.06,0.08
2014-09-18 20:10:00,2,10417,71,0.61,2,2,0,2,9114,12082,942,10454,71,71,0,71,0.05,0.90,0.24,0.65
2014-09-18 20:20:00,2,9550,71,0.71,2,2,0,2,6519,12456,1883,9640,71,71,0,71,0.15,2.20,0.62,0.45
2014-09-18 20:30:00,2,12230,71,0.50,2,2,0,2,9369,14194,1755,12864,71,71,0,71,0.20,0.90,0.20,0.45
2014-09-18 20:40:00,2,30170,71,0.01,2,2,0,2,18975,45083,8772,27754,71,71,0,71,0.00,0.05,0.02,0.00
2014-09-18 20:50:00,2,29740,71,0.06,2,2,0,2,18669,42244,7469,28616,71,71,0,71,0.00,0.35,0.10,0.03
2014-09-18 21:00:00,2,27912,71,0.08,2,2,0,2,21486,38304,4787,26658,71,71,0,71,0.00,0.25,0.10,0.03
2014-09-18 21:10:00,2,29979,71,0.08,2,2,0,2,19384,38955,4832,30848,71,71,0,71,0.00,0.45,0.13,0.05
2014-09-18 21:20:00,2,31174,71,0.04,2,2,0,2,23739,41083,5262,30322,71,71,0,71,0.00,0.10,0.04,0.03
2014-09-18 21:30:00,2,29049,72,0.03,2,2,0,2,18912,37155,6638,28467,71,77,2,71,0.00,0.05,0.02,0.05
2014-09-18 21:40:00,2,41025,74,0.02,2,2,0,2,32703,50000,5869,41186,71,77,3,74,0.00,0.05,0.02,0.00
2014-09-18 21:50:00,2,16076,71,0.32,2,2,0,2,7425,29545,5942,15190,71,71,0,71,0.05,0.60,0.18,0.30
2014-09-18 22:00:00,2,10539,71,0.59,2,2,0,2,4636,15912,3523,10616,71,71,0,71,0.05,1.20,0.37,0.57
2014-09-18 22:10:00,2,11690,71,0.34,2,2,0,2,7939,17014,2563,11128,71,71,0,71,0.05,0.80,0.25,0.25
2014-09-18 22:20:00,2,10533,71,0.47,2,2,0,2,7232,15757,2433,10428,71,71,0,71,0.05,1.05,0.28,0.45
2014-09-18 22:30:00,2,8668,71,0.70,2,2,0,2,6330,10397,1190,8402,71,71,0,71,0.20,1.30,0.42,0.65
2014-09-18 22:40:00,2,10588,71,0.40,2,2,0,2,8649,13582,1654,10650,71,71,0,71,0.10,0.80,0.20,0.30
2014-09-18 22:50:00,2,12846,71,0.49,2,2,0,2,8225,16866,2655,13568,71,71,0,71,0.15,0.95,0.24,0.53
2014-09-18 23:00:00,2,15544,71,0.10,2,2,0,2,13885,16393,769,15645,71,71,0,71,0.05,0.25,0.06,0.10
2014-09-18 23:10:00,2,13631,71,0.08,2,2,0,2,10395,17435,2132,13202,71,71,0,71,0.00,0.45,0.13,0.03
2014-09-18 23:20:00,2,11930,73,0.06,2,2,0,2,10611,13568,830,11848,71,77,3,71,0.00,0.15,0.03,0.05
2014-09-18 23:30:00,2,10623,73,0.04,2,2,0,2,9304,11870,886,10522,71,77,3,71,0.00,0.10,0.03,0.05
2014-09-18 23:40:00,2,8996,71,0.28,2,2,0,2,7425,11702,1046,8834,71,71,0,71,0.05,0.70,0.21,0.20
2014-09-18 23:50:00,2,9584,71,0.24,2,2,0,2,7581,12302,1458,9222,71,71,0,71,0.00,0.55,0.19,0.23
